Wetbulb
72.97 73.24 73.14 73.97 74.41 75.32 76.10 76.45 76.68 76.67 76.18 75.30 74.15 75.26 75.09 73.70 73.23 72.41 72.15 71.09 73.66 74.61 74.38 74.61 75.47 76.14 76.57 77.13 78.01 78.72 79.47 78.95 78.31 77.80 77.02 76.68 76.24 76.38 75.87 75.29 75.34 74.38 73.02
72.25 73.66 74.49 74.78 75.81 76.65 77.13 77.07 76.75 76.67 75.71 74.73 73.74 73.64 74.20 73.99 73.15 71.23 71.83 72.71 70.82 73.80 74.61 74.75 75.65 76.30 76.58 77.32 78.02 79.57 79.24 78.18 78.32 78.01 77.27 76.82 76.10 75.78 74.92 75.19 74.97 73.83 73.23
75.59 75.84 75.46 75.85 76.67 77.54 77.92 78.01 76.94 76.76 74.52 73.89 74.09 73.17 73.32 72.26 71.45 71.23 72.19 72.63 73.14 71.70 72.87 74.21 75.58 76.12 76.12 76.99 78.38 79.15 78.49 78.12 77.91 77.71 77.37 76.57 76.08 75.33 74.52 75.05 74.20 73.51 72.84
76.22 76.19 75.99 76.51 76.83 78.20 78.44 77.56 76.11 74.44 73.60 74.08 74.30 74.16 73.28 73.26 73.24 73.29 73.99 73.62 74.05 73.94 75.17 74.27 75.26 76.42 76.47 77.16 77.69 77.70 77.89 77.82 77.44 77.39 77.10 76.66 75.96 74.80 74.31 75.01 74.15 73.15 72.68
76.34 76.92 76.67 75.71 76.81 78.24 78.08 77.64 75.84 75.33 73.63 73.82 73.70 74.49 75.15 74.86 74.85 74.72 75.07 75.43 75.43 75.39 76.29 77.00 75.66 75.49 76.38 76.36 76.84 77.33 77.52 77.58 77.24 77.14 76.61 76.54 75.66 74.45 74.05 75.27 74.26 73.34 72.69
76.91 77.59 76.31 75.50 77.70 77.88 77.30 76.41 76.23 75.64 75.29 75.27 73.43 73.75 75.39 75.38 75.89 76.01 75.48 75.48 76.13 75.86 75.94 76.96 77.62 76.96 76.29 76.17 75.70 75.91 76.05 76.94 77.14 77.06 76.24 76.14 75.74 74.46 73.83 75.07 74.52 73.69 73.10
77.40 77.20 75.42 76.61 77.84 77.63 77.53 77.99 77.26 76.17 74.71 75.38 73.44 72.97 73.57 74.97 75.50 75.84 76.15 75.58 75.43 75.16 75.03 75.76 76.44 75.88 75.02 73.72 72.81 73.16 74.50 75.75 76.79 77.34 76.33 75.59 75.94 74.69 73.66 74.34 74.86 74.19 73.20
77.26 77.25 75.78 76.88 77.30 77.52 77.56 77.62 77.45 76.07 74.67 75.72 74.96 73.01 70.51 71.56 74.14 74.58 75.80 75.08 75.33 75.14 75.01 74.92 74.92 74.61 74.41 73.73 73.68 72.39 73.87 74.42 74.75 76.18 76.58 75.62 75.23 74.89 73.82 73.45 74.41 74.53 74.15
76.83 77.11 76.36 76.70 76.95 77.69 76.85 77.42 77.18 76.28 73.92 74.04 74.62 74.26 70.40 68.77 72.01 73.68 73.31 73.53 74.26 74.56 74.82 74.63 74.61 74.69 74.39 73.64 73.70 74.70 72.81 73.05 73.63 74.96 75.87 76.27 75.31 75.29 74.72 73.42 73.57 74.42 74.09
76.69 76.94 76.70 76.89 77.69 77.36 78.04 77.93 77.28 76.82 76.68 73.65 74.39 73.36 73.76 73.18 70.49 69.60 73.17 73.07 73.42 72.55 73.26 73.34 73.82 74.56 74.58 74.21 72.90 71.97 70.95 72.89 73.24 74.37 74.77 75.08 74.91 75.14 75.48 74.49 73.29 73.32 73.52
76.86 76.83 77.47 76.98 77.04 76.95 78.07 77.76 77.64 77.52 76.44 75.43 74.58 73.60 72.91 72.07 72.10 70.05 67.69 69.08 72.85 73.03 74.32 74.77 75.09 75.36 75.59 75.59 76.57 75.94 73.00 73.31 73.08 73.12 72.98 73.54 74.60 74.35 75.03 76.14 75.01 73.50 72.76
75.99 77.23 77.04 77.45 77.86 77.03 77.14 77.42 77.79 76.89 77.51 77.03 75.63 74.97 73.58 72.04 71.85 70.39 69.32 70.85 70.39 72.92 74.97 75.75 76.03 76.25 76.73 77.14 75.60 73.07 73.92 72.58 71.81 71.20 71.51 72.23 73.92 74.48 74.53 75.51 76.60 76.01 74.83
74.48 76.50 77.27 77.09 77.97 77.34 77.17 77.62 77.57 77.05 76.92 76.27 76.77 74.74 74.45 74.24 73.58 71.98 71.08 71.55 71.08 73.52 74.22 75.94 75.95 76.31 77.08 78.25 77.71 74.89 72.54 71.48 70.59 69.74 69.91 70.98 72.02 72.28 73.31 74.23 75.13 76.25 76.75
74.73 76.31 76.20 76.94 76.86 77.19 77.12 77.56 76.61 76.25 76.36 76.10 76.00 76.52 75.38 74.43 74.54 74.00 72.81 71.41 70.27 71.98 73.03 73.42 76.39 76.35 77.31 77.55 76.48 75.34 76.07 70.00 69.89 68.76 68.34 68.98 69.89 70.98 71.95 72.84 72.85 73.95 74.74
74.60 74.99 75.72 75.95 76.56 76.73 76.99 77.12 75.51 75.97 76.59 76.53 75.80 76.00 75.57 75.17 74.23 74.60 74.73 73.60 71.58 67.88 68.84 73.32 74.10 76.38 76.73 77.67 75.72 77.93 77.05 69.83 69.41 68.23 67.27 67.02 67.63 68.07 68.46 68.78 69.46 71.08 71.63
74.71 74.71 74.86 75.36 75.86 76.52 76.86 77.14 77.04 76.78 76.55 76.08 75.25 76.30 76.64 75.97 75.42 75.22 74.81 74.87 73.91 72.97 69.23 73.46 75.09 76.19 76.92 76.66 75.63 76.63 75.97 73.26 68.54 66.98 65.35 64.79 65.46 66.04 66.44 67.16 67.40 68.84 70.34
74.39 73.94 74.64 74.88 75.34 75.63 76.26 76.68 76.83 76.58 76.16 76.21 76.09 76.24 76.18 76.51 74.92 75.24 75.62 75.83 74.47 74.39 71.12 73.49 74.93 76.97 77.00 76.62 76.36 76.34 76.83 77.11 70.04 65.37 64.25 63.25 63.15 63.61 64.05 64.62 65.19 66.10 66.44
74.83 74.66 73.80 73.84 73.94 74.99 75.85 76.04 75.75 75.59 75.70 75.41 75.31 75.77 75.78 74.97 75.96 76.60 75.54 76.29 75.39 75.41 73.02 72.59 74.67 75.58 76.16 76.59 75.45 75.80 75.18 75.85 70.03 64.02 62.67 61.84 60.93 60.79 60.34 60.32 60.19 60.90 61.28
74.26 73.65 72.80 72.94 73.16 73.37 74.78 75.80 76.22 75.90 75.39 75.63 76.00 75.30 75.20 75.64 76.06 75.60 76.04 76.12 74.29 75.28 74.53 74.00 72.72 75.08 75.78 76.25 74.44 74.86 74.23 74.24 73.04 65.62 62.85 60.67 60.60 60.52 59.95 59.45 58.83 57.73 56.76
73.99 73.49 73.12 72.56 73.16 74.40 74.19 74.86 75.63 75.37 75.47 75.63 76.15 75.87 75.59 75.53 75.59 76.01 75.44 76.13 75.62 75.67 75.20 73.64 72.58 72.42 74.12 75.95 74.03 73.35 71.58 72.22 72.57 68.45 64.13 62.63 61.67 61.40 60.27 59.57 59.25 58.77 57.17
74.20 74.35 73.22 73.07 73.98 74.62 73.84 74.45 74.67 75.15 75.47 75.28 75.18 75.64 75.68 73.77 70.32 72.26 76.58 76.06 76.05 75.67 75.10 74.73 71.40 72.39 73.01 72.10 71.86 73.25 72.83 70.13 70.40 72.39 66.78 65.99 63.72 62.48 61.74 59.82 60.52 58.08 57.54
75.16 74.72 73.94 73.56 73.29 73.14 63.06 64.89 68.96 73.12 73.80 74.10 73.05 74.26 75.23 70.30 70.49 66.93 67.56 67.88 71.15 75.39 74.27 74.32 73.59 72.72 73.27 71.16 71.19 72.00 72.42 71.93 67.05 70.34 66.56 62.99 62.11 59.61 59.04 57.63 55.94 56.22 55.94
75.54 74.82 74.29 74.19 73.27 71.76 59.82 60.87 62.46 70.63 72.60 73.37 74.13 74.94 74.14 72.38 68.35 73.00 64.60 63.52 63.23 62.71 65.60 74.34 73.89 73.95 71.36 71.33 71.85 70.85 72.48 70.61 66.42 67.22 69.79 61.89 62.40 57.48 57.69 55.60 54.65 54.06 53.84
71.93 74.41 73.35 72.16 69.77 68.40 58.65 58.66 60.76 69.13 70.62 72.11 71.88 73.42 73.55 71.36 70.49 70.51 68.63 67.55 66.95 66.74 67.77 68.61 70.18 70.58 70.44 71.65 71.85 72.76 72.81 67.85 66.01 64.37 69.10 64.73 62.52 59.33 57.49 54.37 53.11 51.70 51.51
70.25 68.82 69.90 71.33 68.91 65.73 58.71 58.77 62.45 68.42 67.54 67.56 67.29 67.39 68.87 69.86 60.45 61.81 68.51 65.63 63.71 61.39 57.21 56.80 57.02 56.86 56.03 57.39 63.14 70.43 68.91 69.10 67.34 63.40 62.75 63.70 62.47 58.60 58.21 56.96 55.17 51.53 51.28
69.07 68.57 67.10 67.38 61.98 63.50 57.65 56.56 61.05 65.75 63.55 61.99 61.23 61.62 56.92 59.38 54.78 56.36 67.60 63.59 61.73 60.70 61.45 60.96 62.70 61.08 61.50 58.94 58.39 64.69 67.40 64.93 65.81 60.80 59.25 60.66 60.37 62.93 58.22 57.39 56.48 56.09 54.52
MSLP
1020.53 1020.57 1020.63 1020.47 1020.47 1020.36 1020.14 1020.10 1020.08 1019.92 1019.98 1020.04 1019.98 1019.92 1019.94 1020.20 1020.28 1020.30 1020.52 1021.12 1021.02 1020.94 1020.81 1020.71 1020.44 1020.28 1020.00 1019.65 1019.47 1019.18 1018.90 1018.66 1018.38 1018.15 1017.75 1017.56 1017.38 1017.25 1017.00 1016.56 1016.34 1016.38 1016.56
1020.74 1020.70 1020.63 1020.38 1020.30 1020.19 1020.12 1020.02 1019.99 1019.84 1019.86 1019.89 1020.01 1019.93 1019.94 1020.14 1020.41 1020.69 1020.54 1020.58 1020.90 1020.80 1020.71 1020.52 1020.28 1020.19 1020.00 1019.83 1019.50 1019.12 1018.83 1018.50 1018.31 1018.05 1017.80 1017.57 1017.44 1017.34 1017.10 1016.70 1016.51 1016.42 1016.59
1020.72 1020.76 1020.56 1020.32 1020.17 1020.12 1020.03 1019.88 1019.88 1019.81 1019.67 1019.79 1019.98 1019.94 1019.90 1020.20 1020.34 1020.65 1020.60 1020.44 1020.35 1020.51 1020.38 1020.30 1020.09 1019.95 1019.86 1019.80 1019.56 1019.24 1018.90 1018.56 1018.23 1018.07 1017.83 1017.64 1017.58 1017.50 1017.28 1016.84 1016.80 1016.72 1016.82
1020.78 1020.73 1020.45 1020.30 1020.21 1020.12 1019.79 1019.66 1019.56 1019.74 1019.96 1019.94 1019.97 1019.97 1019.99 1020.17 1020.34 1020.45 1020.52 1020.44 1020.14 1019.88 1019.94 1020.08 1020.16 1020.01 1019.89 1019.74 1019.57 1019.36 1019.10 1018.69 1018.30 1018.14 1017.90 1017.71 1017.69 1017.62 1017.47 1017.12 1017.18 1017.18 1017.22
1020.73 1020.68 1020.50 1020.43 1020.40 1019.89 1019.68 1019.56 1019.71 1019.78 1019.94 1020.02 1020.02 1020.19 1020.17 1020.23 1020.24 1020.14 1020.32 1020.19 1020.07 1019.99 1019.70 1019.75 1020.08 1020.02 1019.70 1019.56 1019.59 1019.43 1019.23 1018.88 1018.50 1018.26 1018.08 1017.80 1017.77 1017.71 1017.58 1017.32 1017.46 1017.56 1017.61
1020.78 1020.66 1020.50 1020.63 1020.36 1019.80 1019.79 1019.81 1019.97 1020.11 1020.15 1020.17 1019.90 1020.21 1020.30 1020.28 1020.36 1020.21 1020.15 1019.99 1019.89 1019.90 1019.90 1019.92 1019.70 1019.46 1019.88 1019.74 1019.81 1019.56 1019.27 1019.12 1018.60 1018.33 1018.14 1017.95 1017.88 1017.84 1017.65 1017.50 1017.66 1017.73 1017.98
1020.73 1020.81 1020.61 1020.53 1020.37 1020.15 1020.26 1020.21 1020.17 1020.21 1020.22 1020.50 1020.20 1020.32 1020.42 1020.39 1020.34 1020.15 1020.01 1019.82 1019.87 1019.94 1019.97 1019.90 1019.74 1019.52 1019.44 1019.76 1019.78 1019.67 1019.31 1019.16 1018.82 1018.35 1018.18 1017.97 1017.90 1017.95 1017.70 1017.53 1017.69 1017.85 1018.03
1020.76 1020.84 1020.87 1020.60 1020.50 1020.31 1020.43 1020.36 1020.33 1020.21 1020.39 1020.60 1020.09 1020.03 1019.94 1020.22 1020.10 1019.98 1020.03 1019.81 1020.00 1019.96 1019.80 1019.80 1019.80 1019.82 1019.66 1019.50 1019.48 1019.55 1019.43 1019.06 1018.85 1018.36 1018.09 1017.90 1017.85 1017.90 1017.78 1017.62 1017.67 1017.88 1018.03
1020.76 1020.80 1020.94 1020.86 1020.71 1020.58 1020.48 1020.58 1020.49 1020.43 1020.30 1020.64 1020.68 1020.22 1019.84 1019.56 1019.91 1019.90 1019.77 1019.78 1020.04 1019.80 1019.68 1019.72 1019.60 1019.62 1019.59 1019.42 1019.21 1019.02 1019.20 1019.04 1018.76 1018.25 1018.00 1017.75 1017.78 1017.80 1017.74 1017.68 1017.68 1017.82 1018.05
1020.68 1020.81 1020.91 1020.85 1020.81 1020.69 1020.69 1020.60 1020.49 1020.64 1020.44 1020.32 1020.63 1020.64 1020.60 1020.42 1020.00 1019.42 1019.51 1019.49 1019.71 1019.62 1019.58 1019.54 1019.41 1019.36 1019.43 1019.15 1019.16 1019.17 1019.12 1018.84 1018.64 1018.18 1017.86 1017.60 1017.65 1017.77 1017.66 1017.68 1017.63 1017.80 1017.91
1020.67 1020.71 1020.88 1020.78 1020.80 1020.66 1020.67 1020.71 1020.71 1020.79 1020.69 1020.55 1020.45 1020.53 1020.72 1020.72 1020.64 1020.03 1019.22 1019.15 1019.17 1019.45 1019.51 1019.42 1019.32 1019.16 1019.23 1019.17 1018.80 1018.69 1018.89 1018.78 1018.28 1017.89 1017.61 1017.42 1017.30 1017.33 1017.32 1017.32 1017.38 1017.56 1017.69
1020.39 1020.58 1020.56 1020.63 1020.69 1020.57 1020.64 1020.54 1020.68 1020.77 1020.76 1020.78 1020.72 1020.60 1020.43 1020.38 1020.30 1020.20 1019.87 1019.62 1019.44 1019.33 1019.48 1019.39 1019.41 1019.18 1018.99 1018.90 1018.81 1018.90 1018.88 1018.56 1018.00 1017.71 1017.49 1017.46 1017.29 1017.10 1017.13 1017.08 1017.02 1017.20 1017.23
1020.28 1020.32 1020.42 1020.48 1020.42 1020.46 1020.46 1020.54 1020.72 1020.72 1020.71 1020.70 1020.80 1020.59 1020.70 1020.58 1020.65 1020.52 1020.22 1019.83 1019.60 1019.40 1019.35 1019.34 1019.34 1019.26 1019.08 1018.68 1018.62 1018.86 1018.88 1018.53 1018.29 1017.96 1017.59 1017.43 1017.39 1017.32 1017.20 1017.10 1017.00 1017.12 1017.15
1020.00 1020.10 1020.20 1020.28 1020.20 1020.37 1020.38 1020.44 1020.31 1020.46 1020.58 1020.66 1020.81 1020.81 1020.66 1020.68 1020.74 1020.64 1020.37 1020.03 1019.45 1019.36 1019.28 1019.19 1019.31 1019.05 1019.02 1018.89 1019.06 1018.72 1018.59 1018.86 1018.65 1018.39 1018.08 1017.78 1017.59 1017.32 1017.10 1016.98 1017.00 1017.04 1017.05
1019.79 1019.97 1019.99 1020.09 1020.09 1020.16 1020.20 1020.26 1020.30 1020.30 1020.53 1020.64 1020.62 1020.68 1020.58 1020.43 1020.62 1020.64 1020.60 1020.39 1020.00 1019.19 1018.84 1019.00 1018.92 1019.18 1019.03 1018.87 1019.18 1018.63 1018.70 1019.20 1019.01 1018.81 1018.67 1018.38 1018.19 1017.83 1017.46 1017.08 1016.84 1016.83 1016.89
1019.59 1019.68 1019.84 1019.80 1019.87 1019.89 1019.90 1019.98 1020.20 1020.17 1020.32 1020.34 1020.30 1020.39 1020.37 1020.22 1020.28 1020.39 1020.41 1020.42 1020.39 1020.05 1019.52 1019.32 1019.10 1019.38 1019.41 1018.83 1019.15 1018.77 1018.85 1018.96 1019.60 1019.35 1019.08 1018.76 1018.48 1018.14 1017.75 1017.29 1016.76 1016.60 1016.78
1019.32 1019.40 1019.64 1019.80 1019.82 1019.82 1019.72 1019.84 1019.99 1020.10 1020.19 1020.26 1020.22 1020.18 1020.06 1020.18 1019.97 1020.05 1020.16 1020.22 1020.01 1020.04 1019.63 1019.16 1019.41 1019.26 1019.50 1019.44 1019.15 1019.03 1018.70 1018.68 1019.98 1020.05 1019.71 1019.33 1019.00 1018.69 1018.41 1018.13 1017.71 1017.45 1017.24
1019.06 1019.29 1019.49 1019.58 1019.66 1019.67 1019.73 1019.66 1019.70 1019.67 1019.87 1019.90 1019.88 1019.95 1019.85 1019.73 1019.93 1020.01 1019.96 1020.07 1020.00 1019.96 1019.73 1019.42 1019.35 1019.34 1019.53 1019.50 1019.46 1019.42 1018.90 1018.93 1020.10 1020.81 1020.34 1020.10 1019.93 1019.58 1019.20 1018.84 1018.60 1018.22 1018.07
1018.88 1019.05 1019.32 1019.44 1019.45 1019.44 1019.52 1019.48 1019.49 1019.51 1019.53 1019.61 1019.63 1019.66 1019.64 1019.63 1019.65 1019.51 1019.82 1019.72 1019.57 1019.73 1019.61 1019.66 1019.27 1019.25 1019.31 1019.44 1019.44 1019.39 1019.37 1019.36 1019.64 1020.33 1020.45 1020.66 1020.57 1020.31 1020.07 1019.68 1019.31 1019.07 1018.98
1018.53 1018.69 1018.94 1019.13 1019.26 1019.30 1019.42 1019.39 1019.38 1019.26 1019.18 1019.14 1019.30 1019.48 1019.46 1019.48 1019.43 1019.36 1019.41 1019.57 1019.60 1019.73 1019.68 1019.55 1019.28 1019.11 1019.22 1019.43 1019.49 1019.15 1019.26 1019.46 1019.48 1019.96 1020.69 1020.70 1020.63 1020.63 1020.47 1020.15 1020.04 1019.90 1019.64
1018.22 1018.50 1018.66 1018.78 1018.97 1019.14 1019.19 1019.30 1019.28 1019.16 1019.00 1018.84 1018.88 1019.02 1019.10 1019.26 1019.32 1019.17 1019.17 1019.28 1019.44 1019.60 1019.75 1019.68 1019.38 1019.24 1019.10 1019.25 1019.22 1019.41 1019.20 1019.65 1020.14 1019.69 1020.30 1020.46 1020.75 1020.91 1021.34 1021.35 1021.06 1020.86 1020.63
1017.64 1018.08 1018.26 1018.35 1018.65 1018.94 1019.38 1019.48 1019.50 1019.18 1018.98 1018.86 1018.85 1018.98 1019.22 1019.27 1019.42 1019.48 1019.43 1019.39 1019.56 1019.48 1019.68 1019.68 1019.42 1019.24 1019.29 1019.34 1019.38 1019.25 1019.20 1019.60 1019.70 1020.38 1020.25 1020.97 1021.29 1021.52 1021.74 1022.14 1022.66 1022.30 1021.87
1017.20 1017.58 1017.83 1018.21 1018.41 1018.88 1019.25 1019.60 1019.49 1019.30 1019.07 1018.79 1018.82 1018.94 1019.03 1019.18 1019.29 1019.41 1019.60 1019.69 1019.80 1019.77 1019.81 1019.40 1019.29 1019.35 1019.37 1019.41 1019.50 1019.61 1019.59 1019.63 1019.91 1020.49 1020.23 1021.18 1021.38 1022.05 1022.54 1023.22 1023.44 1023.04 1022.52
1016.84 1017.13 1017.63 1018.08 1018.58 1018.91 1019.19 1019.52 1019.40 1019.28 1019.03 1019.11 1019.12 1018.99 1019.23 1019.50 1019.44 1019.52 1019.66 1019.80 1020.01 1020.25 1020.14 1019.42 1019.60 1019.86 1019.88 1019.76 1019.74 1019.72 1019.72 1020.24 1020.68 1020.81 1020.83 1020.66 1021.77 1022.19 1022.84 1023.66 1024.12 1023.56 1023.16
1017.24 1017.37 1017.54 1017.98 1018.37 1018.76 1019.23 1019.68 1019.58 1019.30 1019.09 1019.49 1019.64 1019.43 1019.60 1019.69 1019.92 1019.88 1019.78 1020.06 1020.37 1020.52 1020.97 1020.61 1020.62 1020.73 1020.57 1020.50 1020.21 1019.78 1019.85 1019.77 1019.82 1020.70 1021.19 1020.60 1021.55 1022.17 1022.70 1023.05 1023.68 1024.37 1024.13
1016.45 1017.14 1017.62 1018.15 1018.61 1018.94 1019.52 1019.44 1019.61 1019.30 1019.20 1019.40 1020.06 1020.04 1020.03 1020.28 1020.28 1020.14 1020.18 1020.28 1020.48 1020.66 1020.68 1020.72 1020.73 1020.54 1020.48 1020.80 1020.80 1020.34 1019.88 1019.72 1020.02 1020.63 1021.92 1021.56 1021.35 1021.52 1022.14 1022.66 1022.92 1023.00 1023.12
Wind_Speed
1 1 2 2 2 2 1 1 2 2 3 5 5 4 4 3 2 1 2 2 5 7 9 9 10 10 10 11 11 12 11 10 10 11 10 8 8 10 12 11 9 6 3
0 1 1 1 1 1 1 2 2 2 4 5 6 6 5 4 3 4 3 2 4 7 8 10 11 11 12 11 10 10 9 8 9 10 10 7 7 10 11 10 7 6 6
1 1 1 1 1 1 1 1 2 2 4 5 6 5 4 4 4 3 2 2 2 6 7 8 9 10 10 10 9 9 9 8 8 9 9 7 7 9 10 8 7 8 9
0 1 1 1 2 2 2 3 2 4 5 5 4 3 3 2 2 2 2 4 4 5 4 8 10 12 12 9 6 7 8 7 8 8 9 7 7 7 9 9 6 9 10
2 0 0 2 3 2 3 2 4 3 4 4 4 3 2 3 3 2 4 4 5 6 5 4 5 6 7 3 4 6 9 9 8 8 8 8 6 6 7 9 7 8 9
1 2 1 1 2 2 4 4 4 4 3 2 3 4 1 1 1 2 3 3 3 5 5 6 5 4 9 8 8 8 10 12 8 8 8 8 5 4 5 10 9 8 10
2 2 1 2 1 2 4 3 3 4 3 2 3 4 3 1 1 2 2 3 3 4 4 4 3 4 3 2 3 9 7 10 10 7 7 7 6 3 4 9 9 10 10
3 2 2 1 1 1 3 4 3 1 2 2 1 0 2 3 2 2 2 3 2 3 3 3 4 3 5 5 6 7 8 8 10 8 5 5 5 1 4 7 8 10 11
4 3 2 2 1 2 2 3 3 1 2 2 3 3 2 1 1 1 4 3 2 3 3 4 6 6 6 5 5 2 5 9 11 8 6 4 3 0 4 6 7 7 8
4 4 4 3 1 2 0 2 3 3 1 2 2 3 3 3 1 2 2 4 4 6 5 5 5 5 5 4 2 5 8 9 10 9 5 5 1 1 4 5 7 7 6
4 5 5 4 3 2 1 1 1 2 2 2 0 1 1 2 1 2 3 3 2 2 1 3 3 3 3 4 3 2 7 9 8 6 4 2 3 4 6 8 7 7 7
4 5 5 5 5 4 3 2 2 2 2 2 1 1 1 1 0 1 2 2 4 3 2 1 2 3 3 3 3 7 7 6 9 8 7 4 5 5 4 6 8 8 7
5 6 6 6 4 4 4 3 3 4 2 3 2 2 1 0 0 1 2 2 2 1 0 1 3 3 4 3 5 6 8 9 11 10 9 7 3 2 4 3 4 6 6
5 5 6 5 7 6 5 4 4 4 3 3 4 2 2 2 1 1 3 4 2 1 1 2 2 4 3 5 6 5 8 11 10 11 12 12 12 10 6 5 2 4 4
5 7 6 6 6 7 7 5 5 5 4 4 4 4 5 3 3 3 3 3 4 4 3 2 1 4 3 3 6 5 7 11 13 14 14 15 14 14 13 11 5 2 3
7 7 7 7 6 7 7 7 6 6 6 6 5 5 4 4 4 4 4 3 3 3 5 1 1 3 5 3 5 5 7 10 17 16 16 16 16 17 17 16 9 1 5
6 7 6 7 6 7 7 7 7 7 7 6 6 7 7 5 4 4 4 3 4 3 5 2 3 1 2 4 6 5 5 7 11 16 18 18 19 20 21 19 18 17 16
7 6 6 7 7 6 7 8 8 7 8 8 8 8 8 5 6 5 5 4 4 4 5 6 3 2 1 3 5 5 5 8 10 16 19 19 21 21 20 20 20 20 18
8 6 6 8 8 7 7 7 7 7 9 9 8 8 8 8 7 5 6 4 6 4 4 3 4 2 1 2 2 4 5 5 9 15 16 19 21 21 21 21 20 19 16
9 8 7 6 6 6 8 7 7 8 8 8 7 8 8 10 9 9 7 6 6 5 5 6 4 3 2 2 0 3 5 4 6 9 12 11 12 17 21 18 23 22 20
9 9 8 7 6 5 5 7 7 8 8 7 6 7 7 5 7 7 5 7 6 5 4 4 4 4 3 2 1 2 3 6 5 4 7 7 8 10 13 18 17 24 21
10 9 9 8 7 4 4 4 6 6 6 7 7 8 5 4 2 3 5 3 4 4 4 3 3 4 2 2 3 1 3 5 4 3 7 7 7 9 10 11 18 21 21
10 11 9 8 8 5 4 5 4 5 5 5 7 7 5 4 4 3 5 6 6 5 2 4 4 3 2 2 1 3 2 2 4 3 3 6 6 8 8 10 18 20 20
10 8 9 8 7 5 6 5 5 5 4 5 3 5 6 5 2 4 4 3 3 5 4 3 2 3 3 1 2 1 2 6 5 4 3 3 5 7 7 9 17 19 19
6 6 4 6 6 5 4 7 8 3 2 3 3 4 3 3 3 4 5 4 4 5 9 13 13 10 11 9 5 4 4 5 3 2 4 2 6 6 4 4 7 14 15
5 3 4 2 4 5 2 7 10 2 3 4 2 3 8 6 6 2 3 4 4 3 2 4 5 6 7 10 12 6 1 4 2 4 4 3 5 5 4 3 3 4 5
Wind_Direction
52 15 38 14 359 358 37 52 37 36 39 55 63 83 117 107 65 51 32 40 305 299 305 310 303 304 303 306 318 318 321 329 324 334 345 359 5 352 352 350 352 19 73
328 5 339 343 307 329 9 352 14 29 50 66 75 68 92 101 52 33 41 44 294 290 289 290 293 297 300 306 313 316 334 337 345 350 357 19 14 3 1 2 21 45 80
137 327 323 293 15 339 298 98 90 136 107 99 83 90 95 86 69 53 12 314 271 246 267 276 283 288 295 307 313 341 341 355 9 9 9 30 25 11 8 22 57 73 91
300 182 242 8 11 3 33 64 100 105 92 97 89 62 68 52 40 22 336 297 287 292 256 262 298 307 310 308 329 355 353 360 17 20 18 35 37 20 19 51 87 94 102
173 310 272 16 335 356 44 67 101 121 124 124 115 88 55 36 23 26 343 302 291 302 324 4 351 335 338 337 29 353 352 356 8 24 25 34 53 37 29 59 105 108 114
209 190 184 331 328 11 50 61 71 69 68 95 125 107 86 29 20 1 325 304 326 326 344 348 345 19 35 31 16 350 349 343 6 20 30 33 54 64 47 67 122 117 120
274 317 243 229 324 34 36 51 97 76 88 107 141 121 103 114 165 242 269 284 341 341 345 360 339 352 48 43 34 336 346 342 351 8 23 35 42 80 88 83 124 137 139
244 236 268 232 343 5 54 49 42 120 74 38 280 182 179 173 186 267 261 280 334 340 337 333 318 342 345 331 347 356 346 343 328 357 355 33 41 86 135 106 107 141 153
183 211 231 253 252 289 43 35 30 50 125 69 22 317 209 256 305 281 249 270 300 280 308 307 302 320 328 317 299 336 352 325 308 328 340 15 34 33 155 130 117 119 151
191 193 210 194 280 268 148 25 27 7 240 145 121 63 40 16 339 269 244 275 260 270 290 305 314 318 320 304 335 291 303 301 300 308 334 15 349 156 163 161 142 144 143
207 200 203 197 211 234 215 326 4 16 36 14 9 183 80 90 176 281 319 331 304 16 1 346 348 7 339 308 336 305 300 296 290 303 331 329 205 186 166 174 168 174 165
210 218 217 209 208 206 212 233 289 288 16 46 7 311 302 320 0 270 290 316 329 38 15 90 12 14 348 326 314 309 300 323 9 10 31 345 269 209 181 178 176 191 186
218 215 221 226 228 222 212 223 241 274 275 292 274 319 308 12 63 346 301 17 325 8 352 169 76 13 355 8 42 337 37 27 17 18 37 35 0 319 306 267 203 204 201
233 220 227 227 229 224 225 220 228 254 246 250 269 286 284 252 225 259 319 311 279 246 255 1 127 23 31 29 40 321 65 26 23 25 29 28 18 5 331 289 302 261 219
229 234 233 233 225 231 224 218 243 238 256 253 250 251 258 242 234 244 255 284 315 310 315 116 330 50 32 36 19 42 54 39 38 43 34 30 24 17 6 353 358 221 221
237 234 230 237 233 225 222 218 224 225 234 246 246 229 236 230 225 232 242 244 252 300 289 0 9 13 359 354 48 22 56 85 44 47 47 42 37 35 31 21 0 338 103
229 238 246 245 246 246 234 239 233 231 230 235 239 235 239 234 248 230 226 241 250 250 279 296 266 194 254 350 13 15 68 75 61 48 50 48 47 44 41 37 45 54 59
221 228 236 246 249 240 243 244 243 244 233 240 243 245 240 230 233 241 231 222 242 231 270 278 323 282 237 7 30 52 49 82 85 64 58 53 50 47 45 44 41 45 47
219 225 228 235 239 255 253 257 258 244 236 239 246 248 248 235 230 237 234 237 246 231 227 243 264 261 263 32 108 104 92 97 109 122 96 65 52 46 45 41 42 42 40
209 208 218 220 228 243 244 249 259 258 251 243 239 226 236 237 237 230 220 224 240 239 236 254 266 257 253 133 244 177 123 84 107 107 86 85 64 59 46 48 41 41 43
213 209 204 209 222 228 232 237 244 262 261 249 247 243 233 285 311 264 231 225 218 224 241 255 259 253 230 205 176 108 138 119 91 86 81 67 51 48 42 44 48 50 52
218 214 214 209 206 215 129 222 262 254 256 258 251 249 248 183 212 329 271 311 344 227 229 246 259 254 234 204 159 160 168 188 152 59 108 78 61 67 61 61 42 46 46
219 220 213 208 193 182 169 239 214 250 268 257 248 255 228 223 219 231 72 90 77 69 348 279 274 261 243 211 165 200 178 120 100 108 188 107 104 88 75 63 43 46 50
225 209 192 188 180 176 178 254 246 249 255 272 271 257 244 226 181 190 172 146 76 31 344 284 346 358 304 266 255 288 146 118 123 93 286 146 125 105 103 85 50 54 52
206 182 172 191 195 170 195 265 225 182 101 359 10 38 310 271 64 207 174 152 111 96 71 76 87 85 70 52 10 217 201 212 170 119 36 172 155 127 106 103 103 67 50
193 159 127 138 79 119 123 328 276 164 142 104 46 51 53 35 19 353 227 170 153 149 118 120 112 96 73 73 48 37 255 258 232 178 64 242 175 178 173 136 113 75 70